軌道要素
Epoch 2021 Jan. 26.0 TT = JDT 2459240.5
T 2021 Jan. 17.14196 TT MPCW
q 0.9722767 (2000.0) P Q
n 0.18109147 Peri. 0.77619 +0.44937455 +0.89002254
a 3.0941217 Node 295.93023 -0.82008701 +0.37682724
e 0.6857665 Incl. 4.90891 -0.35428775 +0.25663419
P 5.44
From 102 observations 2004 Sept. 2-2015 Oct. 10, mean residual 0".5.
|